Wattisham, United Kingdom

10:45 PM BST on July 25, 2017 (GMT +0100)
Wattisham Army

Weather History for EGUW - October, 2013

Change the Weather History Date:

Monday, October 21, 2013

  Actual Average Record
Temperature  
Mean Temperature 56 °F -  
Max Temperature 62 °F - - ()
Min Temperature 50 °F - - ()
Degree Days  
Heating Degree Days 9    
Growing Degree Days 6 (Base 50)    
Moisture  
Dew Point 55 °F    
Average Humidity 89    
Maximum Humidity 100    
Minimum Humidity 73    
Precipitation  
Precipitation 0.02 in - - ()
Sea Level Pressure  
Sea Level Pressure 29.71 in    
Wind  
Wind Speed 11 mph ()    
Max Wind Speed 22 mph    
Max Gust Speed 32 mph    
Visibility 7.5 miles    
Events Rain    
T = Trace of Precipitation, MM = Missing Value Source: Averaged Metar Reports

Daily Weather History Graph

Daily Weather History Graph

Search for Another Location

Airport or City:

Trip Planner

Search our weather history database for the weather conditions in past years. The results will help you decide how hot, cold, wet, or windy it might be!

Date:

Astronomy

Oct. 21, 2013 Rise Set
Actual Time 7:31 AM BST 5:48 PM BST
Civil Twilight 6:57 AM BST 6:23 PM BST
Nautical Twilight 6:17 AM BST 7:02 PM BST
Astronomical Twilight 5:38 AM BST 7:41 PM BST
Moon 7:12 PM BST (10/21) 10:09 AM BST (10/21)
Length of Visible Light 11h 26m
Length of Day
10h 17m
Waning Gibbous, 94% of the Moon is Illuminated
Oct 21
Waning Gibbous
Oct 27
Last Quarter
Nov 3
New
Nov 10
First Quarter
Nov 17
Full

Hourly Weather History & Observations

Time (BST) Temp. Dew Point Humidity Pressure Visibility Wind Dir Wind Speed Gust Speed Precip Events Conditions
12:50 AM 53 °F 51 °F 92% 29.75 in 16 mi SSW 11.5 mph - -   Scattered Clouds
12:50 AM 53.6 °F 51.8 °F 94% 29.74 in 6.2 mi SSW 11.5 mph - N/A   Partly Cloudy
1:50 AM 53.6 °F 51.8 °F 94% 29.74 in 6.2 mi SSW 10.4 mph - N/A   Scattered Clouds
2:50 AM 53.6 °F 51.8 °F 94% 29.74 in 6.2 mi SSW 11.5 mph - N/A   Unknown
3:50 AM 53 °F 52 °F 95% 29.75 in 16 mi SSW 10.4 mph - -   Clear
3:50 AM 53.6 °F 51.8 °F 94% 29.74 in - SSW 10.4 mph - N/A   Clear
4:50 AM 53.6 °F 51.8 °F 94% 29.74 in - South 11.5 mph - N/A   Clear
5:50 AM 53.6 °F 51.8 °F 94% 29.74 in - South 9.2 mph - N/A   Clear
6:50 AM 55 °F 54 °F 96% 29.75 in 11 mi South 11.5 mph - - Rain Light Rain
6:50 AM 55.4 °F 53.6 °F 94% 29.74 in 6.2 mi South 11.5 mph - N/A Rain Light Rain
7:50 AM 55.4 °F 53.6 °F 94% 29.74 in 6.2 mi South 10.4 mph - N/A Rain Light Rain
8:50 AM 55.4 °F 55.4 °F 100% 29.74 in 6.2 mi South 10.4 mph - N/A Rain Light Rain
9:31 AM 57.2 °F 55.4 °F 94% 29.74 in 6.2 mi South 11.5 mph - N/A Rain Light Rain
9:50 AM 57 °F 56 °F 94% 29.76 in 12 mi South 10.4 mph - - Rain Light Rain
9:50 AM 57.2 °F 55.4 °F 94% 29.74 in 6.2 mi South 10.4 mph - N/A Rain Light Rain
10:39 AM 57.2 °F 55.4 °F 94% 29.74 in 6.2 mi South 10.4 mph - N/A Rain Light Rain
10:50 AM 57.2 °F 57.2 °F 100% 29.71 in 6.2 mi South 9.2 mph - N/A   Mostly Cloudy
11:22 AM 59.0 °F 57.2 °F 94% 29.71 in 5.0 mi South 11.5 mph - N/A Rain Light Rain
11:50 AM 59.0 °F 57.2 °F 94% 29.71 in 6.2 mi South 13.8 mph - N/A Rain Light Rain
12:26 PM 59.0 °F 57.2 °F 94% 29.71 in 6.2 mi South 13.8 mph - N/A   Light Drizzle
12:50 PM 60 °F 58 °F 90% 29.70 in 16 mi South 18.4 mph - - Rain Light Rain
12:50 PM 60.8 °F 57.2 °F 88% 29.68 in 6.2 mi South 18.4 mph 29.9 mph N/A   Mostly Cloudy
1:30 PM 60.8 °F 57.2 °F 88% 29.68 in 6.2 mi SSW 21.9 mph - N/A   Mostly Cloudy
1:50 PM 62.6 °F 55.4 °F 77% 29.68 in 6.2 mi SSW 20.7 mph 32.2 mph N/A Rain Light Rain
2:50 PM 62.6 °F 55.4 °F 77% 29.68 in 6.2 mi SSW 18.4 mph - N/A   Mostly Cloudy
3:50 PM 62 °F 56 °F 73% 29.68 in 25 mi South 12.7 mph - -   Partly Cloudy
3:50 PM 62.6 °F 55.4 °F 77% 29.68 in 6.2 mi South 12.7 mph - N/A   Mostly Cloudy
4:50 PM 62.6 °F 55.4 °F 77% 29.68 in 6.2 mi SSW 13.8 mph - N/A   Mostly Cloudy
5:50 PM 60.8 °F 55.4 °F 82% 29.68 in 6.2 mi South 13.8 mph - N/A   Mostly Cloudy
6:50 PM 59 °F 55 °F 81% 29.69 in 25 mi South 13.8 mph - -   Partly Cloudy
6:50 PM 59.0 °F 55.4 °F 88% 29.68 in 6.2 mi South 13.8 mph - N/A   Mostly Cloudy
7:50 PM 59.0 °F 53.6 °F 82% 29.68 in 6.2 mi South 11.5 mph - N/A   Partly Cloudy
8:50 PM 59.0 °F 53.6 °F 82% 29.68 in 6.2 mi South 11.5 mph - N/A   Scattered Clouds
9:50 PM 59 °F 55 °F 81% 29.68 in 28 mi South 11.5 mph - -   Scattered Clouds
9:50 PM 59.0 °F 55.4 °F 88% 29.65 in 6.2 mi South 11.5 mph - N/A   Partly Cloudy
10:50 PM 59.0 °F 55.4 °F 88% 29.65 in - South 10.4 mph - N/A   Clear
11:50 PM 59.0 °F 55.4 °F 88% 29.62 in - South 12.7 mph - N/A   Clear